logo
App data

SquareCells

SquareCells is an ambient logic puzzle game.
Store | Hub | SteamDB
Developer: Matthew Brown Publisher: Matthew Brown
Genre: Casual, Indie
Languages: English
Tags: Indie (30), Casual (29), Puzzle (22), Minimalist (9)
Category: Single-player, Steam Achievements, Steam Cloud
Release date: Dec 7, 2015
Price: $2.99
Score rank: 83% Userscore: 92% Old userscore: 92%
Owners: 20,000 .. 50,000
Followers: 951
Peak concurrent players yesterday: 10
Playtime total: 03:47 (average) 03:32 (median)

Steam Spy is still in beta, so expect major bugs.

Owners data:

Access restricted.

This feature is only available to users with special access rights. Sorry.

If you want to proceed, you need to register or log in first and then back Steam Spy on Patreon. Look for Indie or Pro pledge.

Don't forget to use the same email as on Steam Spy!

Audience in 2 weeks:

Access restricted.

This feature is only available to users with special access rights. Sorry.

If you want to proceed, you need to register or log in first and then back Steam Spy on Patreon. Look for Indie or Pro pledge.

Don't forget to use the same email as on Steam Spy!

Peak daily concurrent players:

CCU data courtesy of SteamDB. Used with permission.

Hourly concurrent players:

Daily Twitch stats:

Hourly Twitch stats:

YouTube:

The views data is based on top 50 videos uploaded last week. Actual number of views might be more than the number shown.

The displayed number of videos uploaded yesterday is limited to 50, so if there were more videos uploaded, the number will still show 50.

If the game has commonly used word as its name (like "FEAR" or "Volume") its number of Youtube views might be wrong.

Games similar to this one:

# Game Release date
Price
Score rank
(Userscore / Metascore)
Owners
Players
Playtime (Median)
1 Night Blights Apr 15, 2016 $4.99100% (100%)0 .. 20,0000%00:00 (00:00)
2 Hustle Cat Mar 16, 2016 $19.9997% (97%)20,000 .. 50,0000%00:00 (00:00)
3 Carrie's Order Up! Sep 13, 2016 $2.9997% (97%)0 .. 20,00012.9%01:47 (02:22)
4 Luxor Evolved Mar 1, 2012 $9.9997% (97%)0 .. 20,0000%00:00 (00:00)
5 A Good Snowman Is Hard To Build Feb 25, 2015 $9.9993% (95%)0 .. 20,0000%00:00 (00:00)
6 Chip's Challenge 2 May 28, 2015 $4.9990% (94%)20,000 .. 50,0000%00:00 (00:00)
7 Girls Like Robots Feb 14, 2014 $6.9987% (93%)100,000 .. 200,0000%00:00 (00:00)
8 Tennis in the Face Nov 18, 2015 $4.9987% (93%)0 .. 20,0000%00:00 (00:00)
9 Swapperoo Dec 18, 2015 $4.99N/A (N/A)0 .. 20,0000%00:00 (00:00)
10 Think To Die 3 Mar 27, 2017 $4.99N/A (N/A)0 .. 20,0000%00:00 (00:00)
11 [the Sequence] Mar 30, 2016 $1.9987% (93%)0 .. 20,0000%00:00 (00:00)
12 12 Labours of Hercules Mar 23, 2015 $2.9987% (93%)100,000 .. 200,0000%00:00 (00:00)
13 Grapple Mar 9, 2015 $7.9983% (92%)20,000 .. 50,0000%00:00 (00:00)
14 Frog Climbers Oct 6, 2016 $6.9983% (92%)50,000 .. 100,0000%00:00 (00:00)
15 Earthtongue Apr 27, 2015 $4.9979% (91%)0 .. 20,0000%00:00 (00:00)
16 Koala Kids Jun 22, 2015 $0.9979% (91%)20,000 .. 50,0000%00:00 (00:00)
17 The Jackbox Party Pack Nov 26, 2014 $24.9979% (91%)200,000 .. 500,0002.99%01:25 (00:30)
18 Tribloos 2 Jan 12, 2013 $4.9979% (91%)100,000 .. 200,0001.26%01:32 (01:32)
19 On Rusty Trails Jun 13, 2016 $12.9976% (90%/77%)0 .. 20,0000%00:00 (00:00)
20 Bob Was Hungry Aug 19, 2015 $9.9973% (89%)20,000 .. 50,0000%00:00 (00:00)
21 Vampires: Guide Them to Safety! Oct 22, 2014 $4.99N/A (N/A)0 .. 20,0000%00:00 (00:00)
22 12 Labours of Hercules IV: Mother Nature (Platinum Edition) Dec 25, 2015 $2.9973% (89%)20,000 .. 50,0000%00:00 (00:00)
23 12 Labours of Hercules V: Kids of Hellas (Platinum Edition) Jun 17, 2016 $2.9973% (89%)20,000 .. 50,0000%00:00 (00:00)
24 Loot Hound Nov 17, 2015 $4.9973% (89%)0 .. 20,0000%00:00 (00:00)
25 The Reject Demon: Toko Chapter 0 — Prelude May 9, 2015 $4.9973% (89%)0 .. 20,0000%00:00 (00:00)
26 Clock Simulator Jul 20, 2016 $0.9973% (89%)20,000 .. 50,0000%00:00 (00:00)
27 This Starry Midnight We Make Jun 1, 2015 $9.99N/A (N/A)0 .. 20,0000%00:00 (00:00)
28 Griptape Backbone May 5, 2017 Free73% (89%)0 .. 20,0000%00:00 (00:00)
29 Recursion Deluxe Feb 12, 2016 $4.9970% (88%)0 .. 20,0000%00:00 (00:00)
30 Darkarta: A Broken Heart's Quest Collector's Edition Mar 8, 2017 $5.9970% (88%)20,000 .. 50,0000%00:00 (00:00)
31 Thrillville: Off the Rails Oct 9, 2007 $9.9970% (88%/70%)20,000 .. 50,0000%00:00 (00:00)
32 In Between Aug 21, 2015 $11.9970% (88%/68%)50,000 .. 100,0000%00:00 (00:00)
33 Without Within 2 Nov 9, 2015 $4.9970% (88%)0 .. 20,0000%00:00 (00:00)
34 Forgotten, Not Lost - A Kinetic Novel Apr 2, 2016 $1.9970% (88%)50,000 .. 100,0003.97%03:33 (04:22)
35 Psycho Starship Rampage Sep 28, 2015 $9.9970% (88%)0 .. 20,0000%00:00 (00:00)
36 Asphyxia Aug 4, 2015 $5.9965% (86%)20,000 .. 50,0003.33%03:04 (01:01)
37 Alpha Runner Sep 2, 2015 $0.4965% (86%)50,000 .. 100,0000%00:00 (00:00)
38 Sophie's Curse Mar 16, 2016 $4.9965% (86%)20,000 .. 50,0000%00:00 (00:00)
39 Army of Pixels Oct 29, 2015 $4.99N/A (N/A)0 .. 20,0000%00:00 (00:00)
40 Anode Oct 5, 2015 $3.9965% (86%)0 .. 20,0000%00:00 (00:00)
41 Oozi: Earth Adventure Dec 5, 2013 $4.9965% (86%/66%)50,000 .. 100,0000.65%04:03 (01:21)
42 BAD END Nov 25, 2015 $1.9962% (85%)0 .. 20,0002.86%00:30 (00:10)
43 Governor of Poker 2 - Premium Edition Oct 11, 2010 $14.9960% (84%)20,000 .. 50,0002.5%00:42 (00:14)
44 Magma Tsunami Jun 1, 2016 $0.9960% (84%)100,000 .. 200,0000%00:00 (00:00)
45 RePete Nov 1, 2015 $1.99N/A (N/A)0 .. 20,0000%00:00 (00:00)
46 Sentinel 4: Dark Star Aug 13, 2015 $6.99N/A (N/A)0 .. 20,0000%00:00 (00:00)
47 Cyto Jul 10, 2014 $3.9957% (83%)20,000 .. 50,0000%00:00 (00:00)
48 Cute Things Dying Violently Sep 2, 2015 $2.9957% (83%)0 .. 20,0000%00:00 (00:00)
49 Gridworld Dec 29, 2015 $0.9957% (83%)0 .. 20,0000%00:00 (00:00)
50 Job the Leprechaun Jul 31, 2015 $0.9955% (82%)20,000 .. 50,0000%00:00 (00:00)
51 Steam and Metal Feb 9, 2015 $4.99N/A (N/A)0 .. 20,0003.85%00:01 (00:00)
52 Air Missions: HIND Mar 21, 2016 $16.9955% (82%)0 .. 20,0000%00:00 (00:00)
53 Space Drifters 2D Mar 28, 2016 $0.99N/A (N/A)0 .. 20,0000%00:00 (00:00)
54 Stay Alight Mar 2, 2015 $3.9953% (81%)20,000 .. 50,0000%00:00 (00:00)
55 Collisions Jul 28, 2015 $3.9953% (81%)20,000 .. 50,0000%00:00 (00:00)
56 Archimedes Oct 6, 2016 $2.9953% (81%)20,000 .. 50,0000%00:00 (00:00)
57 Star Sky - ブルームーン Oct 23, 2015 $3.9953% (81%)0 .. 20,0000%00:00 (00:00)
58 Rescue Team 5 Sep 30, 2015 $3.9950% (80%)20,000 .. 50,0000%00:00 (00:00)
59 The Last NightMary - A Lenda do Cabeça de Cuia Nov 2, 2015 $0.5148% (79%)50,000 .. 100,0000%00:00 (00:00)
60 Farm for your Life Jun 5, 2013 $9.9948% (79%)50,000 .. 100,0000%00:00 (00:00)
61 Fate Tectonics Sep 9, 2015 $9.9948% (79%)0 .. 20,0000%00:00 (00:00)
62 GamersGoMakers Aug 8, 2014 $9.9948% (79%)0 .. 20,0000%00:00 (00:00)
63 hackmud Sep 22, 2016 $19.9948% (79%)0 .. 20,0000%00:00 (00:00)
64 Egg Returns Home May 5, 2015 $1.9948% (79%)20,000 .. 50,0000%00:00 (00:00)
65 Terraform May 8, 2015 $2.99N/A (N/A)0 .. 20,0000%00:00 (00:00)
66 The Survey Oct 27, 2016 $4.9948% (79%)0 .. 20,0000%00:00 (00:00)
67 Neon Prism Nov 18, 2016 $4.9946% (78%)50,000 .. 100,0000%00:00 (00:00)
68 Paranormal State: Poison Spring Nov 26, 2013 $9.9946% (78%)20,000 .. 50,0000%00:00 (00:00)
69 Optika Aug 26, 2016 $4.9946% (78%)20,000 .. 50,0002.04%00:01 (00:00)
70 Particulars Nov 19, 2014 $5.9946% (78%/74%)0 .. 20,0002%04:47 (01:35)
71 SinaRun Oct 26, 2015 $2.9944% (77%)0 .. 20,0007.69%00:22 (00:07)
72 Pixel Puzzles 2: Birds Feb 20, 2015 $9.9943% (76%)100,000 .. 200,0001.32%01:01 (01:20)
73 The Deletion Jul 30, 2015 $1.9943% (76%)20,000 .. 50,0000%00:00 (00:00)
74 Caravanserail Feb 26, 2016 $2.99N/A (N/A)0 .. 20,0000%00:00 (00:00)
75 Where are my Internets? Dec 16, 2016 $2.9941% (75%)0 .. 20,0007.69%05:34 (01:51)
76 Beeftacular Aug 26, 2016 $2.9941% (75%)0 .. 20,0000%00:00 (00:00)
77 Kombine Oct 14, 2016 $0.4941% (75%)0 .. 20,0000%00:00 (00:00)
78 Totally Unbalanced Jul 29, 2016 $2.9939% (74%)0 .. 20,0003.85%00:01 (00:00)
79 Turbo Pug 3D Sep 20, 2016 $1.9939% (74%)200,000 .. 500,0000.12%00:01 (00:00)
80 GO AWAY, THERE'S KUMIS OVER THERE! Oct 28, 2016 $0.9939% (74%)50,000 .. 100,0000%00:00 (00:00)
81 Western FPS Mar 13, 2017 $0.9937% (73%)100,000 .. 200,0000%00:00 (00:00)
82 Idle Evolution Apr 3, 2017 $4.9937% (73%)0 .. 20,0000%00:00 (00:00)
83 MOAI 2: Path to Another World Apr 11, 2015 $7.99N/A (N/A)0 .. 20,0000%00:00 (00:00)
84 ConflictCraft Dec 8, 2016 $2.99N/A (N/A)20,000 .. 50,0000%00:00 (00:00)
85 Pester Jan 25, 2013 $0.9935% (72%)100,000 .. 200,0000.88%02:56 (02:22)
86 Laserlife Sep 22, 2015 $14.9934% (71%)0 .. 20,0000%00:00 (00:00)
87 Zipple World Jan 19, 2016 $4.99N/A (N/A)0 .. 20,0000%00:00 (00:00)
88 Axel & Pixel Oct 6, 2010 $4.99N/A (N/A)20,000 .. 50,0000%00:00 (00:00)
89 Lift It Jan 20, 2017 $4.9932% (70%)20,000 .. 50,0000%00:00 (00:00)
90 Wanda - A Beautiful Apocalypse Jun 3, 2016 $9.9931% (69%)50,000 .. 100,0005.11%04:54 (08:39)
91 Love in the Glen Jun 9, 2016 $5.99N/A (N/A)20,000 .. 50,0003.64%02:23 (01:35)
92 Sinister City Oct 18, 2014 $0.9929% (68%)100,000 .. 200,0000.3%00:25 (00:08)
93 1931: Scheherazade at the Library of Pergamum Mar 26, 2015 $2.4929% (68%)0 .. 20,0003.03%00:32 (00:10)
94 Mind Games Mar 4, 2016 $2.9928% (67%)0 .. 20,0000%00:00 (00:00)
95 One Last Chance Apr 7, 2016 $3.9928% (67%)20,000 .. 50,0000%00:00 (00:00)
96 Racecraft Mar 4, 2016 $19.9928% (67%)20,000 .. 50,0000%00:00 (00:00)
97 Marble Duel Nov 12, 2015 $4.9928% (67%)100,000 .. 200,0001.8%00:53 (00:35)
98 Fergus The Fly Feb 1, 2017 $0.9928% (67%)200,000 .. 500,0000.33%32:18 (30:44)
99 Herding Dog Dec 25, 2015 $2.99N/A (N/A)0 .. 20,0000%00:00 (00:00)
100 Broken Dreams Feb 19, 2016 $1.9926% (66%)200,000 .. 500,0000.17%02:58 (01:58)
101 Alter World May 29, 2015 $1.9925% (65%)100,000 .. 200,0000%00:00 (00:00)
102 XCavalypse Jun 6, 2016 $5.99N/A (N/A)0 .. 20,0000%00:00 (00:00)
103 Winexy Jan 13, 2017 $0.9924% (64%)20,000 .. 50,0000%00:00 (00:00)
104 FBI MANIA Jan 31, 2017 $0.99N/A (N/A)50,000 .. 100,0000%00:00 (00:00)
105 Won't You Be My Laser? Sep 2, 2016 $0.99N/A (N/A)0 .. 20,0000%00:00 (00:00)
106 Highborn Feb 19, 2013 $1.99N/A (N/A)0 .. 20,0000%00:00 (00:00)
107 Goodnight Butcher Dec 18, 2015 $1.99N/A (N/A)20,000 .. 50,0000%00:00 (00:00)
108 Bloop Reloaded Feb 6, 2015 $9.9920% (61%)100,000 .. 200,0000.53%04:03 (02:41)
109 Power of Love Jul 21, 2015 $4.9920% (61%)20,000 .. 50,0001.54%02:18 (01:31)
110 Football Blitz Jan 4, 2017 $3.99N/A (N/A)0 .. 20,0000%00:00 (00:00)
111 Dance Magic Feb 15, 2016 $9.99N/A (N/A)0 .. 20,0000%00:00 (00:00)
112 Star Chronicles: Delta Quadrant Jul 7, 2015 $0.9917% (58%)200,000 .. 500,0000%00:00 (00:00)
113 Bunny & Piggy Dec 1, 2016 $0.4916% (57%)20,000 .. 50,0002.07%02:56 (02:55)
114 Way of Gold and Steel Aug 17, 2015 $8.9915% (56%)0 .. 20,0000%00:00 (00:00)
115 Backgammon Blitz Nov 12, 2015 $3.9914% (54%)0 .. 20,0000%00:00 (00:00)
116 King's Guard TD Jun 8, 2016 $0.9914% (54%)100,000 .. 200,0000%00:00 (00:00)
117 Drizzlepath Mar 12, 2015 $2.9913% (53%)0 .. 20,0000%00:00 (00:00)
118 Reptilian Rebellion Aug 8, 2016 $0.4913% (53%)20,000 .. 50,0000%00:00 (00:00)
119 Wildlife Park 2 - Dino World Mar 30, 2012 $3.9913% (53%)0 .. 20,0000%00:00 (00:00)
120 Sky to Fly: Soulless Leviathan Jul 22, 2016 $3.9913% (53%)0 .. 20,0000%00:00 (00:00)
121 Color Syndrome Jun 20, 2016 $0.9913% (52%)20,000 .. 50,0002.44%02:26 (02:30)
122 Quantum Rush Champions Dec 4, 2014 $9.9912% (51%)20,000 .. 50,0000%00:00 (00:00)
123 Rage Runner May 16, 2014 $4.99N/A (N/A)20,000 .. 50,0003.13%04:35 (01:31)
124 Astro Emporia Feb 2, 2015 $0.499% (47%)0 .. 20,0000%00:00 (00:00)
125 Autumn Sep 23, 2014 $2.999% (46%)50,000 .. 100,0000%00:00 (00:00)
126 Melting Hearts: Our Love Will Grow 2 Apr 29, 2016 $4.999% (46%)0 .. 20,0000%00:00 (00:00)
127 Ninja Stealth 2 Jan 30, 2017 $1.998% (45%)20,000 .. 50,0001.59%05:51 (01:57)
128 iREC Jan 16, 2017 Free7% (41%)50,000 .. 100,0002.44%01:01 (00:57)
129 Streets of Chaos Jan 23, 2015 $0.996% (40%)100,000 .. 200,0000.22%04:42 (01:34)
130 Space Hotel Jan 4, 2017 $1.99N/A (N/A)0 .. 20,0000%00:00 (00:00)
131 Burst Mar 14, 2016 $1.99N/A (N/A)100,000 .. 200,0000.33%00:01 (00:00)
132 European Ship Simulator Nov 4, 2016 $19.996% (38%)20,000 .. 50,0007.14%00:34 (00:11)
133 Hide and Secret Treasure of the Ages Mar 15, 2007 $2.99N/A (N/A)0 .. 20,0000%00:00 (00:00)
134 Industry Transporters Aug 31, 2015 $9.99N/A (N/A)0 .. 20,0000%00:00 (00:00)
135 Robot vs Birds Zombies Jun 1, 2013 $0.994% (31%)0 .. 20,0000%00:00 (00:00)
136 Labyrinth Simulator Sep 21, 2015 $4.994% (31%)0 .. 20,0000%00:00 (00:00)
137 Hyposphere May 5, 2016 $2.993% (28%)200,000 .. 500,0000%00:00 (00:00)
138 Cyber Team Manager Jan 8, 2016 $4.992% (20%)0 .. 20,0000%00:00 (00:00)
139 One way to exit Mar 12, 2016 $1.99N/A (N/A)200,000 .. 500,0000%00:00 (00:00)

Owners of this game also own:

Access restricted.

This feature is only available to users with special access rights. Sorry.

If you want to proceed, you need to register or log in first and then back Steam Spy on Patreon. Look for Indie or Pro pledge.

Don't forget to use the same email as on Steam Spy!

Playtime distribution:

Access restricted.

This feature is only available to users with special access rights. Sorry.

If you want to proceed, you need to register or log in first and then back Steam Spy on Patreon. Look for Indie or Pro pledge.

Don't forget to use the same email as on Steam Spy!

Playtime (2 weeks):

Access restricted.

This feature is only available to users with special access rights. Sorry.

If you want to proceed, you need to register or log in first and then back Steam Spy on Patreon. Look for Indie or Pro pledge.

Don't forget to use the same email as on Steam Spy!

User reviews:

Login required.

Please register or log in to see this information.